Weather History for Atwater, CA

Change the Weather History Date:

Wednesday, October 30, 2013

  Actual Average (KMCE) Record (KMCE)
Temperature  
Mean Temperature 54 °F 59 °F  
Max Temperature 69 °F 72 °F 83 °F (2012)
Min Temperature 39 °F 45 °F 38 °F (2009)
Degree Days  
Heating Degree Days 11    
Month to date heating degree days  
Since 1 July heating degree days  
Cooling Degree Days 0    
Month to date cooling degree days  
Year to date cooling degree days  
Growing Degree Days 4 (Base 50)    
Moisture  
Dew Point 46 °F    
Average Humidity 78    
Maximum Humidity 100    
Minimum Humidity 35    
Precipitation  
Precipitation 0.00 in 0.05 in 0.33 in (2001)
Month to date precipitation 0.75  
Year to date precipitation 9.74  
Since 1 July precipitation 1.06  
Snow  
Snow 0.00 in - - ()
Month to date snowfall  
Since 1 July snowfall  
Since 1 September snowfall  
Snow Depth -    
Sea Level Pressure  
Sea Level Pressure 30.11 in    
Wind  
Wind Speed 2 mph (NW)    
Max Wind Speed 9 mph    
Max Gust Speed -    
Visibility 9 miles    
Events      
T = Trace of Precipitation, MM = Missing Value Source: NWS Daily Summary

Daily Weather History Graph

Daily Weather History Graph

Search for Another Location

Airport:

Trip Planner

Search our weather history database for the weather conditions in past years. The results will help you decide how hot, cold, wet, or windy it might be!

Date:

Astronomy

Oct. 30, 2013 Rise Set
Actual Time 7:25 AM PDT 6:06 PM PDT
Civil Twilight 6:58 AM PDT 6:32 PM PDT
Nautical Twilight 6:27 AM PDT 7:03 PM PDT
Astronomical Twilight 5:57 AM PDT 7:34 PM PDT
Moon 3:23 AM PDT (10/30) 3:50 PM PDT (10/30)
Length of Visible Light 11h 34m
Length of Day
10h 40m
Waning Crescent, 16% of the Moon is Illuminated
Oct 30
Waning Crescent
Nov 3
New
Nov 9
First Quarter
Nov 17
Full
Nov 25
Last Quarter

Hourly Weather History & Observations

Time (PDT) Temp. Dew Point Humidity Pressure Visibility Wind Dir Wind Speed Gust Speed Precip Events Conditions
6:45 AM 41.0 °F 41.0 °F 100% 30.09 in 5.0 mi Calm Calm - N/A   Haze
6:55 AM 41.0 °F 41.0 °F 100% 30.09 in 5.0 mi Calm Calm - N/A   Clear
7:45 AM 39.2 °F 39.2 °F 100% 30.11 in 5.0 mi Calm Calm - N/A   Haze
8:45 AM 48.2 °F 48.2 °F 100% 30.13 in 5.0 mi Calm Calm - N/A   Haze
9:45 AM 53.6 °F 51.8 °F 94% 30.14 in 7.0 mi Calm Calm - N/A   Clear
10:45 AM 59.0 °F 44.6 °F 59% 30.15 in 7.0 mi Variable 3.5 mph - N/A   Clear
11:45 AM 64.4 °F 44.6 °F 49% 30.15 in 7.0 mi Variable 3.5 mph - N/A   Clear
12:45 PM 66.2 °F 44.6 °F 46% 30.13 in 10.0 mi Variable 4.6 mph - N/A   Clear
1:45 PM 69.8 °F 42.8 °F 38% 30.10 in 10.0 mi Variable 3.5 mph - N/A   Clear
2:45 PM 69.8 °F 42.8 °F 38% 30.09 in 10.0 mi WNW 6.9 mph - N/A   Clear
3:45 PM 69.8 °F 41.0 °F 35% 30.08 in 10.0 mi NW 9.2 mph - N/A   Clear
4:45 PM 66.2 °F 42.8 °F 43% 30.07 in 10.0 mi North 9.2 mph - N/A   Clear
5:45 PM 64.4 °F 42.8 °F 45% 30.06 in 10.0 mi NW 6.9 mph - N/A   Clear
6:45 PM 57.2 °F 42.8 °F 59% 30.07 in 10.0 mi NW 6.9 mph - N/A   Clear
7:50 PM 53.6 °F 46.4 °F 77% 30.09 in 10.0 mi NW 6.9 mph - N/A   Clear
8:45 PM 50.0 °F 46.4 °F 87% 30.10 in 10.0 mi Calm Calm - N/A   Clear
9:15 PM 50.0 °F 48.2 °F 94% 30.10 in 10.0 mi Calm Calm - N/A   Clear
9:35 PM 51.8 °F 48.2 °F 88% 30.10 in 10.0 mi North 3.5 mph - N/A   Clear
9:55 PM 48.2 °F 46.4 °F 93% 30.11 in 10.0 mi North - - N/A   Clear
10:15 PM 46.4 °F 46.4 °F 100% 30.11 in 10.0 mi Calm Calm - N/A   Clear
10:35 PM 48.2 °F 48.2 °F 100% 30.11 in 10.0 mi Calm Calm - N/A   Clear
10:55 PM 46.4 °F 46.4 °F 100% 30.12 in 10.0 mi North - - N/A   Clear
11:15 PM 48.2 °F 48.2 °F 100% 30.12 in 10.0 mi North - - N/A   Clear
11:35 PM 51.8 °F 51.8 °F 100% 30.12 in 10.0 mi NW 4.6 mph - N/A   Clear
11:55 PM 51.8 °F 51.8 °F 100% 30.11 in 10.0 mi NW 4.6 mph - N/A   Clear